Fremont, MI

4:25 AM EDT on July 23, 2017 (GMT -0400)
Fremont

Weather History for KFFX - March, 2013

Change the Weather History Date:

Saturday, March 9, 2013

  Actual Average (KMKG) Record (KMKG)
Temperature  
Mean Temperature 32 °F -  
Max Temperature 40 °F 38 °F 60 °F (2002)
Min Temperature 23 °F 22 °F -6 °F (1996)
Degree Days  
Heating Degree Days 34    
Moisture  
Dew Point 24 °F    
Average Humidity 69    
Maximum Humidity 94    
Minimum Humidity 52    
Precipitation  
Precipitation 0.00 in - - ()
Sea Level Pressure  
Sea Level Pressure 30.16 in    
Wind  
Wind Speed 6 mph (ESE)    
Max Wind Speed 13 mph    
Max Gust Speed 20 mph    
Visibility 10 miles    
Events Rain    
Averages and records for this station are not official NWS values.
T = Trace of Precipitation, MM = Missing Value Source: NWS Daily Summary

Daily Weather History Graph

Daily Weather History Graph

Search for Another Location

Airport or City:

Trip Planner

Search our weather history database for the weather conditions in past years. The results will help you decide how hot, cold, wet, or windy it might be!

Date:

Astronomy

Mar. 09, 2013 Rise Set
Actual Time 7:06 AM EST 6:43 PM EST
Civil Twilight 6:37 AM EST 7:11 PM EST
Nautical Twilight 6:04 AM EST 7:44 PM EST
Astronomical Twilight 5:31 AM EST 8:18 PM EST
Moon 5:32 AM EST (3/9) 4:42 PM EST (3/9)
Length of Visible Light 12h 34m
Length of Day
11h 37m
Waning Crescent, 5% of the Moon is Illuminated
Mar 9
Waning Crescent
Mar 11
New
Mar 19
First Quarter
Mar 27
Full
Apr 3
Last Quarter

Hourly Weather History & Observations

Time (EST) Temp. Windchill Dew Point Humidity Pressure Visibility Wind Dir Wind Speed Gust Speed Precip Events Conditions
12:15 AM 24.8 °F - 23.0 °F 93% 30.36 in 10.0 mi Calm Calm - N/A   Clear
12:35 AM 24.1 °F 19.7 °F 22.6 °F 94% 30.35 in 10.0 mi East 3.5 mph - N/A   Clear
12:54 AM 25.5 °F - 23.2 °F 91% 30.35 in 10.0 mi Calm Calm - N/A   Clear
1:15 AM 23.5 °F 19.1 °F 22.1 °F 94% 30.35 in 7.0 mi East 3.5 mph - N/A   Clear
1:34 AM 24.3 °F 17.3 °F 22.8 °F 94% 30.34 in 10.0 mi ESE 5.8 mph - N/A   Clear
1:55 AM 27.5 °F 21.1 °F 21.7 °F 79% 30.34 in 10.0 mi ESE 5.8 mph - N/A   Clear
2:15 AM 27.0 °F 21.6 °F 21.2 °F 79% 30.33 in 10.0 mi ESE 4.6 mph - N/A   Clear
2:35 AM 27.3 °F 20.9 °F 21.2 °F 78% 30.32 in 10.0 mi ESE 5.8 mph - N/A   Clear
2:55 AM 28.4 °F 22.2 °F 21.0 °F 74% 30.30 in 10.0 mi ESE 5.8 mph - N/A   Clear
3:14 AM 27.7 °F 22.4 °F 20.7 °F 75% 30.30 in 10.0 mi East 4.6 mph - N/A   Clear
3:35 AM 26.6 °F 21.2 °F 20.7 °F 78% 30.29 in 10.0 mi East 4.6 mph - N/A   Clear
3:54 AM 26.6 °F 21.2 °F 20.5 °F 78% 30.30 in 10.0 mi East 4.6 mph - N/A   Clear
4:14 AM 27.1 °F 20.7 °F 20.1 °F 75% 30.29 in 10.0 mi East 5.8 mph - N/A   Clear
4:35 AM 26.6 °F 20.0 °F 19.9 °F 76% 30.28 in 10.0 mi East 5.8 mph - N/A   Clear
4:55 AM 27.9 °F 21.5 °F 19.8 °F 72% 30.29 in 10.0 mi East 5.8 mph - N/A   Clear
5:14 AM 27.1 °F 20.7 °F 19.4 °F 73% 30.29 in 10.0 mi East 5.8 mph - N/A   Clear
5:35 AM 27.1 °F 20.7 °F 19.4 °F 73% 30.29 in 10.0 mi East 5.8 mph - N/A   Clear
5:55 AM 27.3 °F 20.9 °F 19.8 °F 73% 30.28 in 10.0 mi East 5.8 mph - N/A   Clear
6:14 AM 28.2 °F 22.0 °F 20.3 °F 72% 30.28 in 10.0 mi East 5.8 mph - N/A   Clear
6:35 AM 29.1 °F 23.0 °F 20.7 °F 71% 30.27 in 10.0 mi East 5.8 mph - N/A   Clear
6:55 AM 29.3 °F 22.3 °F 20.8 °F 71% 30.27 in 10.0 mi East 6.9 mph - N/A   Clear
7:14 AM 29.1 °F 24.1 °F 20.8 °F 71% 30.28 in 10.0 mi ESE 4.6 mph - N/A   Clear
7:35 AM 28.8 °F 23.7 °F 20.8 °F 72% 30.27 in 10.0 mi East 4.6 mph - N/A   Clear
7:55 AM 29.1 °F 23.0 °F 21.7 °F 74% 30.27 in 10.0 mi East 5.8 mph - N/A   Clear
8:14 AM 30.2 °F 25.4 °F 22.6 °F 73% 30.27 in 10.0 mi East 4.6 mph - N/A   Clear
8:35 AM 30.9 °F 24.3 °F 23.0 °F 72% 30.28 in 10.0 mi ESE 6.9 mph - N/A   Clear
8:54 AM 31.6 °F 25.1 °F 23.9 °F 73% 30.27 in 10.0 mi ESE 6.9 mph - N/A   Clear
9:14 AM 32.9 °F 24.7 °F 24.8 °F 72% 30.26 in 10.0 mi ESE 10.4 mph - N/A   Clear
9:35 AM 34.0 °F 27.2 °F 24.8 °F 69% 30.25 in 10.0 mi SE 8.1 mph - N/A   Clear
9:55 AM 34.5 °F 26.7 °F 24.6 °F 67% 30.25 in 10.0 mi SSE 10.4 mph - N/A   Clear
10:14 AM 34.7 °F 28.8 °F 24.4 °F 66% 30.25 in 10.0 mi ESE 6.9 mph - N/A   Clear
10:34 AM 35.2 °F 29.5 °F 24.4 °F 65% 30.25 in 10.0 mi SE 6.9 mph - N/A   Clear
10:55 AM 36.5 °F 31.0 °F 23.0 °F 58% 30.25 in 10.0 mi SE 6.9 mph - N/A   Clear
11:14 AM 36.7 °F 29.9 °F 22.8 °F 57% 30.24 in 10.0 mi SSE 9.2 mph - N/A   Clear
11:35 AM 37.4 °F 30.8 °F 22.8 °F 56% 30.23 in 10.0 mi SE 9.2 mph - N/A   Clear
11:55 AM 37.4 °F 32.8 °F 23.5 °F 57% 30.21 in 10.0 mi SE 5.8 mph - N/A   Scattered Clouds
12:14 PM 37.4 °F 32.8 °F 23.5 °F 57% 30.21 in 10.0 mi ESE 5.8 mph - N/A   Overcast
12:35 PM 37.4 °F 32.1 °F 23.7 °F 58% 30.20 in 10.0 mi SE 6.9 mph - N/A   Overcast
12:54 PM 38.1 °F 31.2 °F 23.7 °F 56% 30.17 in 10.0 mi ESE 10.4 mph - N/A   Overcast
1:15 PM 38.3 °F 30.9 °F 24.4 °F 57% 30.14 in 10.0 mi East 11.5 mph 16.1 mph N/A   Overcast
1:35 PM 38.7 °F 32.4 °F 24.3 °F 56% 30.13 in 10.0 mi ESE 9.2 mph 17.3 mph N/A   Overcast
1:54 PM 39.2 °F 33.0 °F 24.1 °F 55% 30.11 in 10.0 mi ESE 9.2 mph 19.6 mph N/A   Overcast
2:15 PM 39.4 °F 33.2 °F 24.4 °F 55% 30.09 in 10.0 mi ESE 9.2 mph - N/A   Overcast
2:34 PM 40.3 °F 33.0 °F 24.4 °F 53% 30.08 in 10.0 mi SE 12.7 mph - N/A   Overcast
2:55 PM 40.1 °F 32.7 °F 24.6 °F 54% 30.07 in 10.0 mi ESE 12.7 mph 17.3 mph N/A   Overcast
3:14 PM 40.5 °F 34.1 °F 24.3 °F 52% 30.08 in 10.0 mi ESE 10.4 mph 17.3 mph N/A   Overcast
3:34 PM 40.6 °F 35.4 °F 24.1 °F 52% 30.08 in 10.0 mi SE 8.1 mph - N/A   Overcast
3:55 PM 39.6 °F 33.5 °F 25.0 °F 56% 30.06 in 10.0 mi ESE 9.2 mph - N/A   Overcast
4:14 PM 39.6 °F 34.0 °F 25.3 °F 57% 30.05 in 10.0 mi East 8.1 mph - N/A   Overcast
4:35 PM 39.6 °F 33.5 °F 25.2 °F 56% 30.05 in 10.0 mi ESE 9.2 mph 18.4 mph N/A   Overcast
4:55 PM 39.4 °F 34.5 °F 25.5 °F 58% 30.05 in 10.0 mi ESE 6.9 mph 16.1 mph N/A   Overcast
5:14 PM 39.2 °F 33.6 °F 25.9 °F 59% 30.03 in 10.0 mi ESE 8.1 mph - N/A   Overcast
5:35 PM 39.2 °F 33.6 °F 26.1 °F 59% 30.03 in 10.0 mi ESE 8.1 mph - N/A   Overcast
5:55 PM 38.7 °F 32.4 °F 26.4 °F 61% 30.03 in 10.0 mi East 9.2 mph - N/A   Overcast
6:14 PM 38.5 °F 32.7 °F 26.6 °F 62% 30.02 in 10.0 mi East 8.1 mph - N/A   Overcast
6:35 PM 38.3 °F 33.2 °F 26.8 °F 63% 30.02 in 10.0 mi East 6.9 mph - N/A   Overcast
6:54 PM 37.9 °F 32.7 °F 27.0 °F 65% 30.01 in 10.0 mi East 6.9 mph - N/A Rain Light Rain
7:15 PM 37.6 °F 32.3 °F 27.3 °F 66% 30.00 in 10.0 mi East 6.9 mph - N/A   Scattered Clouds
7:35 PM 37.6 °F 31.0 °F 27.5 °F 67% 30.00 in 10.0 mi East 9.2 mph - N/A   Scattered Clouds
7:55 PM 37.6 °F 32.3 °F 27.5 °F 67% 29.99 in 10.0 mi East 6.9 mph - N/A   Mostly Cloudy
8:15 PM 37.8 °F 30.7 °F 27.9 °F 67% 29.98 in 10.0 mi ESE 10.4 mph - N/A   Overcast
8:34 PM 37.9 °F 32.7 °F 28.2 °F 68% 29.97 in 10.0 mi East 6.9 mph - N/A   Overcast
8:55 PM 37.8 °F 32.5 °F 28.9 °F 71% 29.97 in 10.0 mi ESE 6.9 mph - N/A   Overcast
9:14 PM 38.3 °F 31.9 °F 29.3 °F 70% 29.98 in 10.0 mi ESE 9.2 mph - N/A   Light Drizzle
9:35 PM 37.4 °F 31.4 °F 30.7 °F 77% 29.97 in 7.0 mi East 8.1 mph - N/A   Drizzle
10:15 PM 37.8 °F 31.8 °F 30.7 °F 76% 29.96 in 10.0 mi ESE 8.1 mph - N/A   Overcast
10:34 PM 37.9 °F 32.1 °F 30.9 °F 76% 29.95 in 10.0 mi ESE 8.1 mph - N/A   Overcast
10:54 PM 37.8 °F 31.8 °F 31.1 °F 77% 29.95 in 10.0 mi ESE 8.1 mph - N/A   Scattered Clouds
11:15 PM 37.8 °F 31.8 °F 31.1 °F 77% 29.94 in 10.0 mi ESE 8.1 mph - N/A   Mostly Cloudy
11:34 PM 38.3 °F 32.5 °F 31.1 °F 75% 29.93 in 10.0 mi ESE 8.1 mph - N/A   Mostly Cloudy
11:55 PM 38.1 °F 31.7 °F 31.1 °F 76% 29.92 in 10.0 mi East 9.2 mph - N/A   Clear